Regional Weather Roundup
Issued by NWS

Home | Current Version | Previous Version | Graphics & Text | Print | Product List | Glossary Off
Versions: 1 2 3 4 5 6 7 8 9 10 11 12 13 14 15 16 17 18 19 20 21 22 23 24 25 26 27 28 29 30 31 32 33 34 35 36 37 38 39 40 41 42 43 44 45 46 47 48 49 50

000
ASUS43 KTOP 160159
RWRKS

WEATHER ROUNDUP FOR KANSAS
NATIONAL WEATHER SERVICE GOODLAND KS
800 PM CST FRI DEC 15 2017

NOTE:  "FAIR" INDICATES FEW OR NO CLOUDS BELOW 12,000 FEET WITH NO
SIGNIFICANT WEATHER AND/OR OBSTRUCTIONS TO VISIBILITY.

KSZ001>006-013>018-027>032-041>047-160300-
NORTHWEST KANSAS

CITY           SKY/WX    TMP DP  RH WIND       PRES   REMARKS
GOODLAND       CLOUDY    44  12  27 SW16      29.84F
HAYS           CLEAR     41  18  39 SW15      29.89F
HILL CITY      CLOUDY    48  16  27 SW14      29.85F
RUSSELL        CLEAR     41  20  43 S15       29.88F
$$

KSZ061>065-074>080-084>089-160300-
SOUTHWEST KANSAS

CITY           SKY/WX    TMP DP  RH WIND       PRES   REMARKS
DODGE CITY     CLOUDY    41  16  36 SW9       29.95S
GARDEN CITY    CLOUDY    37  11  34 S8        29.92F
GREAT BEND     CLEAR     39  18  42 S10       29.92F WCI  32
LIBERAL        CLEAR     38  18  44 MISG        N/A
$$

KSZ066>073-081>083-090>101-160300-
SOUTHEAST KANSAS

CITY           SKY/WX    TMP DP  RH WIND       PRES   REMARKS
CHANUTE        CLEAR     35  23  61 S8        30.06S
COFFEYVILLE    CLEAR     40  24  53 S10       30.08R WCI  33
HUTCHINSON     CLEAR     38  24  57 S10       29.96F WCI  31
MEDICINE LODGE   N/A     41  24  51 S10       29.98F
NEWTON         CLEAR     40  23  50 S17       29.97F WCI  31
PARSONS        CLEAR     36  23  59 S3        30.08R
WICHITA INTL   CLEAR     40  25  55 S13       29.99F WCI  32
WICHITA JABRA  CLEAR     41  25  53 S14       29.99F
WICHITA MCCONL CLEAR     39  23  52 SW10      30.00F WCI  32
WINFIELD       CLEAR     37  26  64 S8        30.04F
$$

KSZ007>012-019>026-033>040-048>060-102>105-160300-
NORTHEAST KANSAS

CITY           SKY/WX    TMP DP  RH WIND       PRES   REMARKS
CONCORDIA      CLOUDY    44  21  40 S15       29.86F
EMPORIA        CLEAR     37  24  59 S17       29.97F WCI  27
LAWRENCE       CLEAR     44  26  49 S16G25    29.95F
MANHATTAN      CLEAR     44  24  45 SW15      29.92S
OLATHE IND     CLEAR     40  25  55 S18       29.96F WCI  31
OLATHE EXE     CLEAR     39  24  55 SW14G22   29.96F WCI  31
SALINA         CLEAR     43  23  45 S14       29.91F
TOPEKA BILLARD CLEAR     43  26  51 S9        29.94F
TOPEKA FORBES  CLEAR     42  26  53 SW16      29.93F
$$




USA.gov is the U.S. government's official web portal to all federal, state and local government web resources and services.